Terminal Aerodrome Forecast
Issued by NWS Atlanta, GA

Home | Current Version | Previous Version | Text Only | Print | Product List | Glossary On
Versions: 1 2 3 4 5 6 7 8 9 10 11 12 13 14 15 16 17 18 19 20 21 22 23 24 25 26 27 28 29 30 31 32 33
184
FTAK31 PAJN 301512 AAA
TAFAHN
TAF AMD
PAHN 301512Z 3015/3112 30007KT P6SM OVC030
     FM301900 12010KT P6SM SCT040 BKN050
     FM310800 09003KT P6SM BKN015 OVC025
      AMD LTD TO CLD VIS AND WIND=

USA.gov is the U.S. government's official web portal to all federal, state and local government web resources and services.